"Pseudo-MPEC" for P21lcSH

Created 2021 Oct 6 17:07:35 UT using Find_Orb

Click here for an explanation of pseudo-MPECs

 
 Astrometry: 
     P21lcSH  C2021 09 17*$+8SmVT?Hjk2!WmcCAstrometryrG!4@3=^0G!n%afq:YMHSO8DF52
     P21lcSH  C2021 09 17;9redacted;VbVyZ#Hxg?\])]9xbdY:x`c+5clickU)*hereI_l%F52
     P21lcSH  C2021 09 17_L]9N[[mqvTWNWmOforLE5iPexplanationJDY.G?MXdq.ER!pKQF52

Station data:
(F52) Pan-STARRS 2, Haleakala  (N20.707384 W156.255910)  US/Hawaii. 1.8-m
   Ritchey-Chrétien + CCD.

Orbital elements:  P21lcSH
   Perihelion 2022 Feb 7.673525 +/- 414.466 TT = 16:09:52 (JD 2459618.173525)
Epoch 2021 Sep 18.0 TT = JDT 2459475.5   Earth MOID: 0.0021   Ve: 0.0397
M 191.96410803 +/- 116.15409        (J2000 ecliptic)          AutoNEOCP
n   1.17776505 +/- 0.640274         Peri.  140.71672 +/- 68.562037
a   0.88803538 +/- 0.321839         Node    28.09759 +/- 90.856902
e   0.1602434 +/- 0.190852          Incl.    1.56418 +/- 60.234830
P   0.84/305.66d           H 25.3   G  0.15   U 12.5  SR
q 0.74573350 +/- 1.64442    Q 1.03033726 +/- 37.8576
From 3 observations 2021 Sept. 17 (31.3 min); mean residual 0".16
Residuals in arcseconds: 
210917 F52  .16-  .02+    210917 F52  .32+  .04-    210917 F52  .16-  .02+    

Ephemerides (geocentric):
Date (UTC) HH   RA              Dec         delta   r     elong  mag " sig PA
---- -- -- --  -------------   -----------  ------ ------ -----  --- ---- ---
2021 10 06 17  04 02 58.110   -00 59 13.01  .01835 1.0118 131.2 18.5  47d 178
2021 10 06 18  04 02 54.215   -01 01 33.32  .01828 1.0118 131.3 18.4  47d 178
2021 10 06 19  04 02 50.275   -01 03 54.81  .01820 1.0117 131.3 18.4  47d 178
2021 10 06 20  04 02 46.288   -01 06 17.50  .01812 1.0117 131.4 18.4  47d 178
2021 10 06 21  04 02 42.255   -01 08 41.40  .01804 1.0116 131.4 18.4  47d 178
2021 10 06 22  04 02 38.175   -01 11 06.52  .01796 1.0116 131.4 18.4  47d 178
2021 10 06 23  04 02 34.047   -01 13 32.88  .01788 1.0115 131.5 18.4  47d 178
2021 10 07 00  04 02 29.871   -01 16 00.50  .01781 1.0115 131.5 18.4  47d 177
2021 10 07 01  04 02 25.646   -01 18 29.40  .01773 1.0114 131.6 18.4  47d 177
2021 10 07 02  04 02 21.372   -01 20 59.59  .01765 1.0114 131.6 18.4  47d 177
2021 10 07 03  04 02 17.048   -01 23 31.08  .01757 1.0113 131.7 18.3  47d 177
2021 10 07 04  04 02 12.673   -01 26 03.89  .01749 1.0113 131.7 18.3  47d 177
2021 10 07 05  04 02 08.247   -01 28 38.05  .01742 1.0112 131.8 18.3  47d 177
2021 10 07 06  04 02 03.769   -01 31 13.56  .01734 1.0111 131.8 18.3  47d 177
2021 10 07 07  04 01 59.239   -01 33 50.46  .01726 1.0111 131.9 18.3  47d 177
2021 10 07 08  04 01 54.656   -01 36 28.74  .01718 1.0110 131.9 18.3  47d 177
2021 10 07 09  04 01 50.018   -01 39 08.44  .01710 1.0110 132.0 18.3  47d 177
2021 10 07 10  04 01 45.327   -01 41 49.57  .01703 1.0109 132.0 18.3  47d 177
2021 10 07 11  04 01 40.580   -01 44 32.16  .01695 1.0109 132.1 18.3  47d 177
2021 10 07 12  04 01 35.778   -01 47 16.21  .01687 1.0108 132.1 18.2  47d 177
2021 10 07 13  04 01 30.918   -01 50 01.75  .01679 1.0108 132.2 18.2  47d 177
2021 10 07 14  04 01 26.002   -01 52 48.81  .01671 1.0107 132.2 18.2  48d 177
2021 10 07 15  04 01 21.028   -01 55 37.39  .01664 1.0107 132.3 18.2  48d 177
2021 10 07 16  04 01 15.995   -01 58 27.53  .01656 1.0106 132.3 18.2  48d 177
2021 10 07 17  04 01 10.902   -02 01 19.25  .01648 1.0105 132.4 18.2  48d 177
2021 10 07 18  04 01 05.749   -02 04 12.56  .01640 1.0105 132.4 18.2  48d 177
2021 10 07 19  04 01 00.535   -02 07 07.48  .01632 1.0104 132.4 18.2  48d 177
2021 10 07 20  04 00 55.259   -02 10 04.05  .01625 1.0104 132.5 18.2  48d 177
2021 10 07 21  04 00 49.920   -02 13 02.28  .01617 1.0103 132.5 18.1  48d 177
2021 10 07 22  04 00 44.518   -02 16 02.20  .01609 1.0103 132.6 18.1  48d 177
2021 10 07 23  04 00 39.051   -02 19 03.83  .01601 1.0102 132.6 18.1  48d 177
2021 10 08 00  04 00 33.519   -02 22 07.19  .01594 1.0102 132.7 18.1  48d 177
2021 10 08 01  04 00 27.921   -02 25 12.31  .01586 1.0101 132.7 18.1  48d 177
2021 10 08 02  04 00 22.256   -02 28 19.22  .01578 1.0100 132.8 18.1  48d 177
2021 10 08 03  04 00 16.522   -02 31 27.94  .01570 1.0100 132.8 18.1  48d 177
2021 10 08 04  04 00 10.720   -02 34 38.50  .01562 1.0099 132.9 18.1  48d 177
2021 10 08 05  04 00 04.848   -02 37 50.92  .01555 1.0099 132.9 18.0  48d 177
2021 10 08 06  03 59 58.905   -02 41 05.24  .01547 1.0098 133.0 18.0  48d 177
2021 10 08 07  03 59 52.890   -02 44 21.47  .01539 1.0098 133.0 18.0  48d 177
2021 10 08 08  03 59 46.802   -02 47 39.65  .01531 1.0097 133.1 18.0  48d 177
2021 10 08 09  03 59 40.640   -02 50 59.81  .01524 1.0097 133.1 18.0  48d 177
2021 10 08 10  03 59 34.403   -02 54 21.98  .01516 1.0096 133.2 18.0  48d 177
2021 10 08 11  03 59 28.090   -02 57 46.18  .01508 1.0095 133.2 18.0  48d 177
2021 10 08 12  03 59 21.700   -03 01 12.44  .01500 1.0095 133.3 18.0  48d 177
2021 10 08 13  03 59 15.231   -03 04 40.81  .01493 1.0094 133.3 17.9  48d 177
2021 10 08 14  03 59 08.683   -03 08 11.31  .01485 1.0094 133.4 17.9  48d 177
2021 10 08 15  03 59 02.054   -03 11 43.97  .01477 1.0093 133.4 17.9  48d 177
2021 10 08 16  03 58 55.343   -03 15 18.82  .01469 1.0093 133.5 17.9  48d 177